Lemoore, CA

4:13 AM PST on February 11, 2016 (GMT -0800)
Lemoore Naval Air Station

Weather History for KNLC - May, 2013

Change the Weather History Date:

Wednesday, May 15, 2013

  Actual Average Record
Temperature  
Mean Temperature 73 °F -  
Max Temperature 91 °F 81 °F 104 °F (2014)
Min Temperature 55 °F 51 °F 44 °F (2008)
Cooling Degree Days 8    
Growing Degree Days 23 (Base 50)    
Moisture  
Dew Point 42 °F    
Average Humidity 38    
Maximum Humidity 69    
Minimum Humidity 13    
Precipitation  
Precipitation 0.00 in - - ()
Sea Level Pressure  
Sea Level Pressure 29.94 in    
Wind  
Wind Speed 9 mph (NW)    
Max Wind Speed 21 mph    
Max Gust Speed 25 mph    
Visibility 10 miles    
Events      
Averages and records for this station are not official NWS values.
T = Trace of Precipitation, MM = Missing Value Source: NWS Daily Summary

Daily Weather History Graph

Daily Weather History Graph

Search for Another Location

Airport or City:

Trip Planner

Search our weather history database for the weather conditions in past years. The results will help you decide how hot, cold, wet, or windy it might be!

Date:

Astronomy

May. 15, 2013 Rise Set
Actual Time 5:53 AM PDT 7:59 PM PDT
Civil Twilight 5:24 AM PDT 8:28 PM PDT
Nautical Twilight 4:49 AM PDT 9:03 PM PDT
Astronomical Twilight 4:11 AM PDT 9:41 PM PDT
Moon 10:31 AM PDT (5/15) No Moon Set
Length of Visible Light 15h 04m
Length of Day
14h 06m
Waxing Crescent, 28% of the Moon is Illuminated
May 15
Waxing Crescent
May 17
First Quarter
May 24
Full
May 31
Last Quarter
Jun 8
New

Hourly Weather History & Observations

Time (PDT) Temp. Dew Point Humidity Pressure Visibility Wind Dir Wind Speed Gust Speed Precip Events Conditions
12:56 AM 64.9 °F 48.9 °F 56% 29.93 in 10.0 mi NNW 6.9 mph - N/A   Clear
1:56 AM 61.0 °F 46.9 °F 60% 29.93 in 10.0 mi NW 5.8 mph - N/A   Clear
2:56 AM 57.9 °F 46.0 °F 65% 29.94 in 10.0 mi NW 4.6 mph - N/A   Clear
3:56 AM 57.0 °F 46.0 °F 67% 29.94 in 10.0 mi West 5.8 mph - N/A   Clear
4:56 AM 55.9 °F 46.0 °F 69% 29.95 in 10.0 mi West 5.8 mph - N/A   Clear
5:56 AM 55.0 °F 44.1 °F 67% 29.96 in 9.0 mi WNW 8.1 mph - N/A   Clear
6:56 AM 57.9 °F 44.1 °F 60% 29.99 in 9.0 mi NW 4.6 mph - N/A   Clear
7:14 AM 59.0 °F 44.6 °F 59% 30.00 in 10.0 mi NNW 5.8 mph - N/A   Partly Cloudy
7:56 AM 64.0 °F 43.0 °F 46% 30.00 in 10.0 mi NNW 12.7 mph - N/A   Partly Cloudy
8:56 AM 69.1 °F 43.0 °F 39% 30.00 in 10.0 mi NNW 6.9 mph - N/A   Partly Cloudy
9:56 AM 75.0 °F 41.0 °F 29% 29.99 in 10.0 mi NNW 8.1 mph - N/A   Partly Cloudy
10:56 AM 79.0 °F 41.0 °F 26% 29.99 in 10.0 mi WNW 6.9 mph - N/A   Partly Cloudy
11:56 AM 82.0 °F 39.0 °F 22% 29.97 in 10.0 mi Variable 3.5 mph - N/A   Scattered Clouds
12:56 PM 87.1 °F 37.9 °F 18% 29.96 in 10.0 mi Variable 6.9 mph - N/A   Mostly Cloudy
1:56 PM 89.1 °F 37.0 °F 16% 29.94 in 10.0 mi North 6.9 mph - N/A   Mostly Cloudy
2:56 PM 90.0 °F 35.1 °F 14% 29.92 in 10.0 mi NW 11.5 mph 16.1 mph N/A   Mostly Cloudy
3:56 PM 91.9 °F 35.1 °F 13% 29.90 in 10.0 mi NW 11.5 mph 21.9 mph N/A   Mostly Cloudy
4:56 PM 91.0 °F 37.9 °F 15% 29.89 in 10.0 mi North 13.8 mph - N/A   Mostly Cloudy
5:56 PM 89.1 °F 37.0 °F 16% 29.88 in 10.0 mi NNW 17.3 mph - N/A   Mostly Cloudy
6:56 PM 84.0 °F 37.9 °F 19% 29.88 in 10.0 mi NNW 19.6 mph - N/A   Mostly Cloudy
7:56 PM 79.0 °F 45.0 °F 30% 29.89 in 10.0 mi NNW 20.7 mph 25.3 mph N/A   Mostly Cloudy
8:56 PM 75.0 °F 41.0 °F 29% 29.91 in 10.0 mi NNW 19.6 mph - N/A   Mostly Cloudy
9:56 PM 71.1 °F 42.1 °F 35% 29.94 in 10.0 mi NW 16.1 mph - N/A   Scattered Clouds
10:56 PM 66.9 °F 41.0 °F 39% 29.95 in 10.0 mi NW 17.3 mph - N/A   Partly Cloudy
11:56 PM 64.9 °F 42.1 °F 43% 29.95 in 10.0 mi NNW 12.7 mph - N/A   Partly Cloudy